TimeEST,TemperatureF,Dew PointF,Humidity,Sea Level PressureIn,VisibilityMPH,Wind Direction,Wind SpeedMPH,Gust SpeedMPH,PrecipitationIn,Events,Conditions,WindDirDegrees,DateUTC
12:15 AM,33.3,28.0,81,30.14,10.0,SSW,8.1,-,N/A,,Overcast,210,2013-01-06 05:15:00
12:35 AM,32.2,27.1,82,30.13,10.0,SSW,8.1,-,N/A,,Overcast,210,2013-01-06 05:35:00
12:55 AM,30.6,25.9,83,30.13,10.0,SSW,8.1,-,N/A,,Scattered Clouds,210,2013-01-06 05:55:00
1:15 AM,29.7,25.0,83,30.13,10.0,SSW,6.9,-,N/A,,Clear,200,2013-01-06 06:15:00
1:35 AM,28.9,24.6,84,30.12,10.0,South,8.1,-,N/A,,Clear,190,2013-01-06 06:35:00
1:55 AM,29.8,25.3,83,30.11,10.0,South,6.9,-,N/A,,Mostly Cloudy,190,2013-01-06 06:55:00
2:15 AM,29.8,25.5,84,30.11,10.0,South,6.9,-,N/A,,Mostly Cloudy,190,2013-01-06 07:15:00
2:35 AM,30.2,25.7,83,30.10,10.0,South,6.9,-,N/A,,Overcast,190,2013-01-06 07:35:00
2:55 AM,30.9,26.4,83,30.10,10.0,South,6.9,-,N/A,,Overcast,190,2013-01-06 07:55:00
3:15 AM,31.6,26.6,82,30.09,10.0,South,5.8,-,N/A,,Overcast,190,2013-01-06 08:15:00
3:35 AM,32.0,26.6,80,30.09,10.0,South,8.1,-,N/A,,Overcast,190,2013-01-06 08:35:00
3:55 AM,32.0,26.6,80,30.08,10.0,SSW,8.1,-,N/A,,Overcast,200,2013-01-06 08:55:00
4:15 AM,32.0,26.6,80,30.07,10.0,South,8.1,-,N/A,,Overcast,190,2013-01-06 09:15:00
4:35 AM,32.0,27.1,82,30.07,10.0,SSW,8.1,-,N/A,,Overcast,200,2013-01-06 09:35:00
4:55 AM,32.0,27.5,83,30.06,10.0,SSW,9.2,-,N/A,,Overcast,200,2013-01-06 09:55:00
5:15 AM,32.9,28.2,83,30.05,10.0,SSW,10.4,-,N/A,,Overcast,200,2013-01-06 10:15:00
5:35 AM,33.3,28.4,82,30.04,10.0,SSW,10.4,-,N/A,,Overcast,200,2013-01-06 10:35:00
5:55 AM,33.8,28.6,81,30.04,10.0,SSW,11.5,-,N/A,,Overcast,200,2013-01-06 10:55:00
6:15 AM,33.8,28.9,82,30.04,10.0,SSW,9.2,-,N/A,,Overcast,200,2013-01-06 11:15:00
6:35 AM,33.8,29.1,83,30.04,10.0,SSW,8.1,-,N/A,,Overcast,210,2013-01-06 11:35:00
6:55 AM,33.8,29.1,83,30.04,10.0,SSW,10.4,-,N/A,,Overcast,200,2013-01-06 11:55:00
7:15 AM,34.0,29.3,83,30.04,10.0,SSW,11.5,-,N/A,,Overcast,200,2013-01-06 12:15:00
7:50 AM,33.8,28.4,81,30.05,10.0,SSW,13.8,-,N/A,,Overcast,200,2013-01-06 12:50:00
8:50 AM,33.8,28.4,81,30.05,10.0,SSW,11.5,-,N/A,,Overcast,210,2013-01-06 13:50:00
10:50 AM,35.6,30.2,81,30.05,10.0,SSW,15.0,-,N/A,,Overcast,200,2013-01-06 15:50:00
11:55 AM,35.6,30.2,81,30.03,10.0,SSW,12.7,-,N/A,,Overcast,210,2013-01-06 16:55:00
1:55 PM,35.6,30.2,81,30.00,7.0,SW,10.4,-,N/A,,Light Drizzle,220,2013-01-06 18:55:00
2:55 PM,35.6,32.0,87,30.03,3.0,SW,9.2,-,N/A,Rain,Light Rain,230,2013-01-06 19:55:00
3:47 PM,35.6,32.0,87,30.05,7.0,WSW,10.4,-,N/A,,Overcast,250,2013-01-06 20:47:00
4:30 PM,33.8,30.2,87,30.08,10.0,West,17.3,23.0,N/A,,Overcast,270,2013-01-06 21:30:00
5:47 PM,30.2,28.4,93,30.13,7.0,WNW,13.8,-,N/A,,Overcast,290,2013-01-06 22:47:00
6:47 PM,28.4,23.0,80,30.18,7.0,West,15.0,-,N/A,,Overcast,280,2013-01-06 23:47:00
8:15 PM,26.8,22.1,83,30.22,7.0,West,9.2,17.3,N/A,,Overcast,270,2013-01-07 01:15:00
8:35 PM,26.6,22.3,84,30.23,7.0,West,11.5,16.1,N/A,,Overcast,280,2013-01-07 01:35:00
8:55 PM,26.2,22.1,84,30.24,5.0,West,12.7,19.6,N/A,,Overcast,280,2013-01-07 01:55:00
9:15 PM,26.2,22.1,84,30.25,5.0,West,10.4,19.6,N/A,,Overcast,270,2013-01-07 02:15:00
9:35 PM,26.2,22.5,86,30.25,5.0,West,11.5,16.1,N/A,,Overcast,270,2013-01-07 02:35:00
10:15 PM,26.4,22.8,86,30.26,5.0,West,10.4,-,N/A,,Overcast,270,2013-01-07 03:15:00
10:55 PM,27.0,23.4,86,30.29,5.0,West,9.2,-,N/A,,Overcast,280,2013-01-07 03:55:00
11:15 PM,27.0,23.5,87,30.30,5.0,West,8.1,-,N/A,,Overcast,260,2013-01-07 04:15:00
11:35 PM,27.1,23.5,86,30.30,5.0,West,6.9,-,N/A,,Overcast,260,2013-01-07 04:35:00
11:55 PM,27.1,23.7,87,30.31,5.0,West,8.1,-,N/A,,Overcast,270,2013-01-07 04:55:00